Regional Weather Roundup
Issued by NWS Nashville, TN

Home | Current Version | Previous Version | Text Only | Print | Product List | Glossary On
Versions: 1 2 3 4 5 6 7 8 9 10 11 12 13 14 15 16 17 18 19 20 21 22 23 24 25 26 27
000
ASUS44 KOHX 060110
RWROHX
MIDDLE TENNESSEE HOURLY WEATHER ROUNDUP
NATIONAL WEATHER SERVICE NASHVILLE TN
800 PM CDT THU MAY 05 2016

NOTE: "FAIR" INDICATES FEW OR NO CLOUDS BELOW 12,000 FEET WITH
NO SIGNIFICANT WEATHER AND/OR OBSTRUCTIONS TO VISIBILITY.

* THESE REPORTS ARE NOT UNDER NWS QUALITY CONTROL AND MAY NOT
  REPORT WEATHER SUCH AS PRECIPITATION AND FOG.


TNZ005>011-023>034-057-059-062>066-078-080-060200
...NORTHERN MIDDLE TENNESSEE...

CITY           SKY/WX    TMP DP  RH WIND       PRES   REMARKS
CLARKSVILLE    CLOUDY    55  44  66 N8        29.97S
CROSSVILLE     MOCLDY    46  39  76 NW6       29.91R
NASHVILLE      CLOUDY    56  41  57 NW10      29.96R
SMYRNA         CLOUDY    56  43  61 N15       29.97R
SPARTA         MOCLDY    52  43  71 N3        29.92R
$$
TNZ056-058-060-061-075>077-079-093>097-060200
...SOUTHERN MIDDLE TENNESSEE...

CITY           SKY/WX    TMP DP  RH WIND       PRES   REMARKS
COLUMBIA       CLOUDY    55  45  67 N3        29.95S
MCMINNVILLE    MOCLDY    52  43  71 VRB5      29.92S
SHELBYVILLE    CLOUDY    55  43  62 NW7       29.95R
TULLAHOMA      PTCLDY    48  39  71 NW6       29.94R
WINCHESTER     CLEAR     52  39  62 N5        29.93R
$$


...KEY TO REMARKS...
VSB - VISIBILITY IN MILES
WCI - WIND CHILL INDEX
HX  - HEAT INDEX





USA.gov is the U.S. government's official web portal to all federal, state and local government web resources and services.